This demonstration page uses our WeatherBlox Daily Observations layout. Learn more.

Left ArrowRight Arrow

Hourly Observations for November 22, 2021

Temp ( °F °C ) Dew Point ( °F °C ) Humidity (%) Winds ( mph kmh ) Pressure ( in mb ) Visibility ( mi km ) Precip ( " mm )
12:56 am 00:56 Cloudy 32 0 24 -4.4 73 73 S 6 9 30.31 1027 10 16 0.00 0.00
1:56 am 01:56 Cloudy 32 0 24 -4.4 73 73 S 6 9 30.30 1026 10 16 0.00 0.00
2:56 am 02:56 Mostly Cloudy 30 -1.1 23 -5 75 75 SSW 7 11 30.29 1026 10 16 0.00 0.00
3:56 am 03:56 Clear 31 -0.6 24 -4.4 76 76 SSW 13 20 30.26 1025 10 16 0.00 0.00
4:56 am 04:56 Mostly Clear 32 0 23 -5 69 69 SSW 14 22 30.23 1024 10 16 0.00 0.00
5:56 am 05:56 Cloudy 33 0.6 23 -5 66 66 VRB 3 6 30.24 1024 10 16 0.00 0.00
6:56 am 06:56 Mostly Cloudy 31 -0.6 24 -4.4 76 76 SW 3 6 30.25 1025 10 16 0.00 0.00
7:56 am 07:56 Sunny 28 -2.2 23 -5 81 81 SW 6 9 30.25 1024 10 16 0.00 0.00
8:56 am 08:56 Sunny 34 1.1 24 -4.4 67 67 WSW 6 9 30.24 1024 10 16 0.00 0.00
9:56 am 09:56 Sunny 38 3.3 25 -3.9 60 60 NW 7 11 30.25 1024 10 16 0.00 0.00
10:56 am 10:56 Sunny 45 7.2 27 -2.8 49 49 WNW 7 11 30.23 1024 10 16 0.00 0.00
11:56 am 11:56 Sunny 53 11.7 27 -2.8 37 37 VRB 3 6 30.20 1023 10 16 0.00 0.00
12:56 pm 12:56 Sunny 56 13.3 25 -3.9 30 30 WNW 10 17 30.17 1022 10 16 0.00 0.00
1:56 pm 13:56 Sunny 58 14.4 23 -5 26 26 NW 10 17 30.15 1021 10 16 0.00 0.00
2:56 pm 14:56 Sunny 59 15 23 -5 25 25 NW 6 9 30.14 1021 10 16 0.00 0.00
3:56 pm 15:56 Sunny 60 15.6 21 -6.1 22 22 NNW 9 15 30.13 1020 10 16 0.00 0.00
4:56 pm 16:56 Sunny 58 14.4 22 -5.6 25 25 Calm 30.12 1020 10 16 0.00 0.00
5:56 pm 17:56 Clear 49 9.4 24 -4.4 38 38 S 6 9 30.13 1020 10 16 0.00 0.00
6:56 pm 18:56 Clear 47 8.3 24 -4.4 41 41 SSW 5 7 30.13 1020 10 16 0.00 0.00
7:56 pm 19:56 Clear 43 6.1 24 -4.4 47 47 SSW 5 7 30.14 1021 10 16 0.00 0.00
8:56 pm 20:56 Clear 42 5.6 24 -4.4 49 49 SSW 8 13 30.11 1020 10 16 0.00 0.00
9:56 pm 21:56 Clear 39 3.9 23 -5 53 53 SSW 6 9 30.10 1019 10 16 0.00 0.00
10:56 pm 22:56 Clear 36 2.2 22 -5.6 57 57 SSW 6 9 30.09 1019 10 16 0.00 0.00
11:56 pm 23:56 Clear 39 3.9 24 -4.4 55 55 SSW 9 15 30.07 1018 10 16 0.00 0.00

Powered by AerisWeather